STARLINK-11268 [DTC] (61055 NORAD) Tracking and Keplerian Element Data

This shows tracking and keplerian element data for the satellite.

Feedback or suggestion? Click here.




ElementValue
Catalog61055
NameSTARLINK-11268 [DTC]
Epoch Orbit479
Epoch Day286.36518901
Epoch Year2024
RAAN321.918
Inclination53.1548
Eccentricity0.0001672
Argument of Perigee130.3578
Mean Anonmoly229.7589
Mean Motion15.76706994
Decay Rate5.732E-05
L11 61055U 24164F 24286.36518901 .00005732 00000+0 39036-4 0 9990
L22 61055 53.1548 321.9180 0001672 130.3578 229.7589 15.76706994 4798



Live tracking and technical data element details for STARLINK-11268 [DTC] (NORAD 61055). STARLINK-11268 [DTC] can be tracked NOW for your location showing map with azimuth and elevation plus other details from your city location.







IsCatalogInMostPopularTable: catalog: 61055, numindb: 24
Update: records affected: 1



GetName: 61055 STARLINK-11268 [DTC]

Hit Count: updated at: Wed, 04 Dec 2024 09:11:19 GMT